When you browse on this site, cookies collect data to enhance your experience and personalize the content and advertising you see.
Visit our Privacy Policy to learn more. By continuing to use the site, you agree to this use of cookies and data.
  • In Sweden
  • List of Countries
  • For 7 days
  • Water Temperature
  • Satellite Maps
  • Weather Map
  • Weather Widgets
  • user-avatar
    Login

    Hourly Weather Bani Walid

    Today, 18 July, Thursday

    Time Temperature Precipitation Wind Pressure Humidity
    00:00 +24°C° 0 mm 2 mps 743 mmHg 68%
    01:00 +24°C° 0 mm 1 mps 743 mmHg 73%
    02:00 +23°C° 0 mm 1 mps 742 mmHg 75%
    03:00 +23°C° 0 mm 1 mps 742 mmHg 78%
    04:00 +22°C° 0 mm 1 mps 742 mmHg 81%
    05:00 +23°C° 0 mm 1 mps 742 mmHg 78%
    06:00 +21°C° 0 mm 0 mps 743 mmHg 75%
    07:00 +22°C° 0 mm 0 mps 743 mmHg 72%
    08:00 +24°C° 0 mm 0 mps 743 mmHg 62%
    09:00 +25°C° 0 mm 0 mps 743 mmHg 51%
    10:00 +27°C° 0 mm 0 mps 743 mmHg 41%
    11:00 +28°C° 0 mm 0 mps 743 mmHg 35%
    12:00 +30°C° 0 mm 0 mps 742 mmHg 28%
    13:00 +34°C° 0 mm 1 mps 742 mmHg 22%
    14:00 +34°C° 0 mm 1 mps 742 mmHg 20%
    15:00 +36°C° 0 mm 2 mps 742 mmHg 18%
    16:00 +37°C° 0 mm 3 mps 741 mmHg 16%
    17:00 +35°C° 0 mm 5 mps 742 mmHg 24%
    18:00 +32°C° 0 mm 6 mps 742 mmHg 32%
    19:00 +29°C° 0 mm 7 mps 742 mmHg 40%
    20:00 +28°C° 0 mm 6 mps 742 mmHg 47%
    21:00 +27°C° 0 mm 5 mps 743 mmHg 54%
    22:00 +25°C° 0 mm 4 mps 743 mmHg 60%
    23:00 +25°C° 0 mm 3 mps 743 mmHg 64%

    Tomorrow, 19 July, Friday

    Time Temperature Precipitation Wind Pressure Humidity
    00:00 +25°C° 0 mm 3 mps 743 mmHg 67%
    01:00 +24°C° 0 mm 2 mps 743 mmHg 71%
    02:00 +24°C° 0 mm 2 mps 743 mmHg 73%
    03:00 +23°C° 0 mm 2 mps 743 mmHg 75%
    04:00 +23°C° 0 mm 1 mps 743 mmHg 77%
    05:00 +24°C° 0 mm 2 mps 743 mmHg 74%
    06:00 +24°C° 0 mm 2 mps 744 mmHg 70%
    07:00 +25°C° 0 mm 3 mps 744 mmHg 67%
    08:00 +27°C° 0 mm 3 mps 744 mmHg 58%
    09:00 +28°C° 0 mm 2 mps 744 mmHg 49%
    10:00 +30°C° 0 mm 2 mps 745 mmHg 40%
    11:00 +32°C° 0 mm 2 mps 744 mmHg 35%
    12:00 +34°C° 0 mm 2 mps 744 mmHg 30%
    13:00 +35°C° 0 mm 1 mps 744 mmHg 24%
    14:00 +36°C° 0 mm 2 mps 743 mmHg 23%
    15:00 +37°C° 0 mm 3 mps 743 mmHg 22%
    16:00 +38°C° 0 mm 3 mps 743 mmHg 20%
    17:00 +35°C° 0 mm 5 mps 743 mmHg 28%
    18:00 +33°C° 0 mm 7 mps 743 mmHg 35%
    19:00 +29°C° 0 mm 8 mps 744 mmHg 43%
    20:00 +28°C° 0 mm 7 mps 744 mmHg 50%
    21:00 +27°C° 0 mm 6 mps 744 mmHg 58%
    22:00 +26°C° 0 mm 5 mps 745 mmHg 65%
    23:00 +25°C° 0 mm 4 mps 745 mmHg 69%

    Day after tomorrow, 20 July, Saturday

    Time Temperature Precipitation Wind Pressure Humidity
    00:00 +25°C° 0 mm 3 mps 745 mmHg 72%
    01:00 +24°C° 0 mm 2 mps 745 mmHg 76%
    02:00 +24°C° 0 mm 2 mps 744 mmHg 79%
    03:00 +23°C° 0 mm 1 mps 744 mmHg 82%
    04:00 +23°C° 0 mm 1 mps 744 mmHg 86%
    05:00 +23°C° 0 mm 1 mps 744 mmHg 82%
    06:00 +24°C° 0 mm 1 mps 745 mmHg 79%
    07:00 +25°C° 0 mm 1 mps 745 mmHg 76%
    08:00 +26°C° 0 mm 2 mps 745 mmHg 65%
    09:00 +28°C° 0 mm 2 mps 746 mmHg 54%
    10:00 +30°C° 0 mm 3 mps 746 mmHg 43%
    11:00 +32°C° 0 mm 2 mps 746 mmHg 38%
    12:00 +34°C° 0 mm 2 mps 746 mmHg 33%
    13:00 +35°C° 0 mm 2 mps 746 mmHg 28%
    14:00 +36°C° 0 mm 2 mps 745 mmHg 26%
    15:00 +37°C° 0 mm 3 mps 745 mmHg 24%
    16:00 +37°C° 0 mm 4 mps 744 mmHg 22%
    17:00 +35°C° 0 mm 5 mps 744 mmHg 31%
    18:00 +32°C° 0 mm 7 mps 744 mmHg 39%
    19:00 +28°C° 0 mm 8 mps 744 mmHg 48%
    20:00 +27°C° 0 mm 7 mps 745 mmHg 55%
    21:00 +26°C° 0 mm 6 mps 745 mmHg 62%
    22:00 +25°C° 0 mm 5 mps 746 mmHg 68%
    23:00 +25°C° 0 mm 4 mps 746 mmHg 72%

    21 July, Sunday

    Time Temperature Precipitation Wind Pressure Humidity
    00:00 +24°C° 0 mm 3 mps 745 mmHg 75%
    01:00 +24°C° 0 mm 2 mps 745 mmHg 79%
    02:00 +23°C° 0 mm 2 mps 745 mmHg 82%
    03:00 +23°C° 0 mm 1 mps 745 mmHg 84%
    04:00 +22°C° 0 mm 1 mps 745 mmHg 87%
    05:00 +23°C° 0 mm 1 mps 745 mmHg 84%
    06:00 +24°C° 0 mm 1 mps 746 mmHg 80%
    07:00 +24°C° 0 mm 2 mps 746 mmHg 77%
    08:00 +26°C° 0 mm 2 mps 746 mmHg 67%
    09:00 +28°C° 0 mm 2 mps 747 mmHg 57%
    10:00 +29°C° 0 mm 2 mps 747 mmHg 46%
    11:00 +31°C° 0 mm 2 mps 746 mmHg 39%
    12:00 +34°C° 0 mm 2 mps 746 mmHg 32%
    13:00 +35°C° 0 mm 2 mps 746 mmHg 25%
    14:00 +36°C° 0 mm 3 mps 745 mmHg 24%
    15:00 +36°C° 0 mm 4 mps 745 mmHg 23%
    16:00 +37°C° 0 mm 5 mps 745 mmHg 22%
    17:00 +34°C° 0 mm 6 mps 745 mmHg 30%
    18:00 +32°C° 0 mm 7 mps 745 mmHg 39%
    19:00 +28°C° 0 mm 8 mps 745 mmHg 47%
    20:00 +27°C° 0 mm 7 mps 745 mmHg 53%
    21:00 +26°C° 0 mm 6 mps 746 mmHg 60%
    22:00 +23°C° 0 mm 5 mps 746 mmHg 66%
    23:00 +23°C° 0 mm 4 mps 746 mmHg 70%

    22 July, Monday

    Time Temperature Precipitation Wind Pressure Humidity
    00:00 +22°C° 0 mm 3 mps 746 mmHg 75%
    01:00 +21°C° 0 mm 2 mps 745 mmHg 79%
    02:00 +21°C° 0 mm 2 mps 745 mmHg 83%
    03:00 +21°C° 0 mm 1 mps 745 mmHg 86%
    04:00 +21°C° 0 mm 1 mps 745 mmHg 90%
    05:00 +22°C° 0 mm 1 mps 745 mmHg 86%
    06:00 +23°C° 0 mm 1 mps 746 mmHg 82%
    07:00 +24°C° 0 mm 1 mps 746 mmHg 77%
    08:00 +26°C° 0 mm 2 mps 746 mmHg 65%
    09:00 +28°C° 0 mm 2 mps 747 mmHg 54%
    10:00 +30°C° 0 mm 3 mps 747 mmHg 42%
    11:00 +31°C° 0 mm 3 mps 746 mmHg 36%
    12:00 +34°C° 0 mm 3 mps 746 mmHg 30%
    13:00 +36°C° 0 mm 3 mps 746 mmHg 25%
    14:00 +36°C° 0 mm 4 mps 745 mmHg 24%
    15:00 +37°C° 0 mm 5 mps 745 mmHg 22%
    16:00 +38°C° 0 mm 6 mps 745 mmHg 21%
    17:00 +35°C° 0 mm 7 mps 745 mmHg 27%
    18:00 +33°C° 0 mm 7 mps 745 mmHg 34%
    19:00 +29°C° 0 mm 8 mps 745 mmHg 40%
    20:00 +28°C° 0 mm 7 mps 745 mmHg 49%
    21:00 +26°C° 0 mm 5 mps 745 mmHg 59%
    22:00 +25°C° 0 mm 4 mps 746 mmHg 69%
    23:00 +24°C° 0 mm 3 mps 745 mmHg 74%

    23 July, Tuesday

    Time Temperature Precipitation Wind Pressure Humidity
    00:00 +22°C° 0 mm 3 mps 745 mmHg 79%
    01:00 +21°C° 0 mm 2 mps 745 mmHg 84%
    02:00 +22°C° 0 mm 1 mps 744 mmHg 86%
    03:00 +21°C° 0 mm 1 mps 744 mmHg 88%
    04:00 +21°C° 0 mm 1 mps 744 mmHg 90%
    05:00 +22°C° 0 mm 1 mps 744 mmHg 85%
    06:00 +23°C° 0 mm 1 mps 744 mmHg 79%
    07:00 +24°C° 0 mm 2 mps 745 mmHg 73%
    08:00 +26°C° 0 mm 1 mps 745 mmHg 61%
    09:00 +28°C° 0 mm 1 mps 745 mmHg 49%
    10:00 +30°C° 0 mm 1 mps 745 mmHg 37%
    11:00 +32°C° 0 mm 1 mps 745 mmHg 32%
    12:00 +35°C° 0 mm 2 mps 744 mmHg 26%
    13:00 +36°C° 0 mm 2 mps 744 mmHg 21%
    14:00 +37°C° 0 mm 2 mps 744 mmHg 20%
    15:00 +37°C° 0 mm 3 mps 743 mmHg 19%
    16:00 +38°C° 0 mm 3 mps 743 mmHg 17%
    17:00 +36°C° 0 mm 4 mps 743 mmHg 24%
    18:00 +34°C° 0 mm 6 mps 743 mmHg 30%
    19:00 +32°C° 0 mm 7 mps 743 mmHg 36%
    20:00 +29°C° 0 mm 6 mps 743 mmHg 46%
    21:00 +27°C° 0 mm 5 mps 744 mmHg 56%
    22:00 +26°C° 0 mm 4 mps 744 mmHg 66%
    23:00 +25°C° 0 mm 3 mps 744 mmHg 72%
    Show more